Theta_e
290 293 292 290 290 292 290 290 285 288 287 290 292 293 292 294 295 295 295 295 296 296 295 296 296 297 297 297 298 297 297 296 296 297 297 298 298 298 299 300 302 303 301 300
287 291 290 288 290 291 291 292 291 292 289 294 292 294 293 293 294 294 295 295 296 296 296 296 296 296 296 296 297 297 295 295 296 297 298 298 298 298 298 298 299 300 299 299
282 289 288 283 289 290 290 292 292 288 293 292 291 293 292 293 294 294 294 294 295 295 294 294 294 296 295 296 296 295 294 295 296 297 297 297 297 297 297 297 298 298 298 299
280 284 276 286 293 294 291 292 292 293 292 292 293 294 294 294 293 293 293 293 293 293 293 294 296 295 295 295 294 294 294 295 296 296 296 296 296 296 296 297 297 298 298 299
280 281 283 287 294 293 290 289 292 290 291 293 293 293 291 295 295 292 292 292 292 292 294 295 294 294 293 292 293 294 293 294 295 295 294 295 295 296 297 297 297 298 299 299
284 280 277 285 294 298 296 285 294 294 293 292 292 289 290 293 292 291 291 291 291 294 293 292 293 293 292 291 292 292 293 294 295 294 294 295 295 296 297 297 298 299 299 299
283 276 282 290 296 299 282 284 293 294 294 294 293 293 292 291 290 291 290 292 293 293 291 292 293 293 291 291 290 292 293 294 293 294 294 294 295 297 297 299 299 297 297 299
285 279 277 296 297 289 290 292 293 294 293 293 292 291 290 290 289 291 291 292 293 292 292 292 293 292 290 289 291 292 292 293 293 294 294 295 296 297 299 298 296 296 297 297
285 283 290 296 294 297 295 293 293 293 293 293 291 289 290 288 291 290 290 290 292 291 291 291 291 291 289 290 291 291 291 291 293 294 294 295 296 296 298 297 296 296 296 295
291 291 293 296 297 299 297 296 296 296 295 293 289 289 289 290 289 288 289 289 290 290 290 289 291 291 290 291 291 291 290 291 292 292 293 295 297 299 297 296 295 295 295 295
292 295 297 297 299 298 296 296 294 293 292 290 290 289 289 288 288 288 289 289 291 290 289 290 290 290 290 291 291 289 289 290 291 293 294 295 297 299 297 298 296 295 295 295
286 293 294 294 298 296 294 293 292 291 290 291 290 289 289 288 288 288 288 290 291 290 290 289 289 289 290 290 290 289 288 289 291 292 293 294 297 298 296 294 293 292 292 293
292 295 298 298 300 297 294 294 294 292 291 290 291 290 289 288 288 291 289 291 291 290 290 289 289 289 290 290 290 289 288 289 290 291 293 295 296 298 296 298 295 293 292 290
300 298 294 295 294 295 295 294 295 293 291 291 290 289 289 288 288 288 289 290 291 291 289 288 288 288 289 290 289 289 289 290 291 292 293 294 296 299 298 297 296 298 295 291
297 297 294 293 293 293 293 293 292 291 290 290 290 289 288 287 286 288 290 291 290 289 288 288 287 288 289 290 289 288 289 289 290 291 292 294 295 297 299 298 298 298 300 296
292 294 294 293 292 292 291 291 290 290 290 290 290 289 289 289 287 288 289 290 288 287 288 287 287 288 289 289 288 288 288 288 289 290 291 291 292 294 297 299 298 299 299 298
290 290 291 291 291 291 291 291 290 290 290 289 290 290 289 288 286 286 287 288 288 288 287 287 286 288 289 289 288 287 287 288 287 288 289 289 291 293 297 301 300 300 298 297
293 294 294 293 292 291 292 292 290 290 290 290 291 290 288 286 284 285 286 286 286 286 286 286 287 287 288 288 287 287 286 286 286 286 287 287 288 291 294 296 300 298 299 296
295 295 294 294 293 291 290 289 289 289 290 290 289 288 288 287 286 286 287 285 284 283 284 286 286 286 286 287 286 286 285 285 285 285 285 286 286 288 290 291 297 300 300 302
293 292 292 291 290 290 289 289 288 288 289 288 288 288 288 288 287 286 286 284 284 285 286 285 285 284 285 285 285 285 284 283 283 283 284 284 285 285 287 287 290 293 296 299
291 291 290 289 289 289 288 288 288 287 288 288 287 287 288 289 289 287 284 283 285 286 285 285 284 282 283 284 284 283 283 282 282 282 282 282 283 283 284 286 287 289 290 292
289 289 288 288 288 287 287 287 287 287 287 287 287 287 287 287 287 286 286 285 286 286 284 283 283 282 282 283 283 282 282 282 281 281 281 281 281 282 282 283 284 286 287 288
288 288 288 287 286 287 288 288 288 287 286 286 286 286 285 285 287 284 283 286 286 285 284 283 282 281 282 283 282 281 281 281 280 280 280 280 280 281 281 281 282 284 285 286
288 288 287 287 288 286 285 287 287 286 286 286 287 286 285 284 285 288 288 287 285 285 284 283 282 281 281 282 281 280 280 280 280 280 280 280 280 280 280 281 281 282 283 284
290 289 288 287 285 284 284 286 286 285 285 284 285 285 285 286 285 286 287 287 285 285 284 283 282 281 281 281 281 280 279 279 279 279 279 279 279 279 280 280 280 281 282 282
288 286 286 286 286 286 285 285 285 284 284 282 283 284 284 285 285 286 287 285 285 284 283 283 282 282 281 280 280 280 280 279 279 278 279 279 279 279 280 280 280 280 281 281
287 287 286 285 284 284 284 285 284 283 283 282 281 282 283 283 283 283 284 285 283 282 282 282 282 282 281 280 280 280 280 280 279 279 279 279 279 279 279 280 280 280 280 280
Wind_Speed
1 2 2 1 3 5 6 5 6 4 6 4 4 6 5 5 5 5 4 4 4 5 5 5 7 8 8 9 11 9 10 11 11 11 12 12 12 11 13 12 12 11 12 13
1 1 2 4 6 7 6 4 5 6 5 5 3 7 5 6 5 3 2 5 6 5 5 7 8 10 12 12 13 12 12 12 12 12 12 12 14 12 13 13 13 13 12 14
2 3 3 6 12 11 6 6 9 8 10 6 4 7 5 4 4 2 4 5 6 7 7 9 9 11 13 13 12 13 13 14 14 12 13 13 14 13 13 13 14 14 14 13
2 3 3 6 4 5 5 1 4 4 4 7 5 5 5 3 3 4 5 5 6 7 8 8 10 11 11 11 12 12 13 13 12 12 14 14 13 14 14 13 15 15 14 14
4 3 6 4 3 2 4 2 2 8 7 7 7 5 1 2 3 2 4 5 5 6 10 12 12 12 12 13 12 11 12 12 12 13 15 15 14 14 15 15 15 15 15 15
2 3 4 5 3 3 1 2 5 9 6 7 5 2 2 3 4 6 7 6 8 11 11 13 13 13 12 14 12 12 12 13 13 14 15 14 15 15 15 15 16 14 15 16
4 2 7 6 4 4 5 6 4 4 6 5 3 2 2 4 6 5 5 9 12 10 10 11 13 12 12 12 12 12 12 13 13 14 14 14 15 14 14 14 14 15 16 13
3 2 7 1 3 2 4 2 6 5 3 7 6 4 5 5 6 8 9 12 10 10 10 11 11 10 12 12 12 12 12 13 13 13 12 12 15 14 12 12 14 14 10 6
7 6 4 3 3 1 3 5 3 6 5 7 5 3 3 3 6 6 7 8 9 10 12 11 10 10 12 12 12 12 12 12 12 14 13 13 13 14 9 10 10 9 7 7
1 3 3 3 2 2 4 7 8 10 7 4 5 3 2 2 4 5 6 8 9 11 12 13 11 11 11 12 12 12 13 13 11 13 15 13 10 9 7 7 8 7 7 7
2 4 4 3 4 5 9 11 12 9 5 6 6 3 1 3 5 5 7 7 9 11 11 13 13 12 12 12 11 12 12 11 11 11 12 12 11 9 7 7 6 7 6 6
5 7 5 5 6 9 10 9 8 9 5 4 4 4 1 4 4 4 7 7 10 12 12 13 13 13 12 12 12 12 12 9 9 10 10 10 10 9 8 12 12 10 8 7
5 4 4 2 8 6 10 9 7 7 6 5 2 2 3 3 5 9 6 9 11 12 13 13 13 13 13 14 13 13 12 11 9 11 9 10 10 8 7 6 9 9 7 8
2 6 3 4 6 8 12 9 10 6 5 5 4 4 4 4 5 6 7 9 11 11 12 12 13 13 14 13 13 13 12 16 8 9 9 10 10 9 5 5 7 6 2 4
4 2 6 10 12 11 10 9 8 6 5 3 3 5 5 7 7 7 8 9 10 10 12 13 13 14 15 14 14 13 10 8 10 9 8 11 9 9 6 5 5 6 5 5
6 10 10 13 13 11 9 7 6 5 3 1 2 4 6 6 6 6 8 10 11 11 13 14 14 15 15 15 15 11 10 16 13 9 9 9 9 8 7 5 4 4 4 3
12 8 11 10 10 8 6 5 5 5 4 4 4 5 6 6 6 8 9 9 9 9 12 13 14 15 14 15 15 10 9 10 15 9 9 10 9 9 9 6 4 2 2 0
6 8 9 14 12 10 8 6 6 5 3 4 5 6 6 7 6 7 9 9 9 8 12 13 15 15 14 15 15 11 10 10 10 10 9 10 11 9 9 11 6 4 3 2
11 12 11 11 9 8 7 6 4 5 5 5 6 6 6 6 5 6 7 10 12 12 15 15 22 17 14 18 17 10 11 11 11 10 10 13 11 10 10 11 10 6 4 5
12 10 11 9 9 8 7 5 6 6 5 6 6 5 5 5 5 7 7 10 9 7 11 13 14 12 14 17 20 10 12 12 12 11 11 11 11 12 11 14 12 11 11 9
11 11 10 10 8 7 6 6 6 6 5 6 6 4 4 3 4 6 9 8 12 13 12 15 11 11 10 12 12 11 12 12 12 11 12 12 12 12 12 12 11 11 10 9
8 8 9 8 7 6 6 6 6 6 6 5 5 4 4 5 5 5 4 5 6 14 9 9 9 14 11 16 10 11 12 12 11 10 11 11 11 11 12 12 12 11 10 10
7 7 7 7 7 6 6 5 6 6 6 5 5 5 4 2 2 4 5 7 5 9 7 8 13 13 13 10 10 11 12 13 12 11 11 11 10 10 11 11 11 11 11 11
6 6 6 6 6 6 7 4 6 6 6 6 6 5 4 3 3 2 2 5 10 10 8 9 12 14 13 8 10 11 11 12 12 11 10 14 10 10 10 10 10 11 10 11
6 5 6 6 6 4 6 6 6 5 6 7 6 5 5 3 2 1 3 4 8 7 6 10 12 13 9 8 10 11 11 10 11 10 10 10 11 10 10 10 10 11 10 10
6 5 4 5 5 4 4 4 5 3 4 5 4 4 4 4 4 4 4 6 7 9 6 7 8 9 9 9 10 11 10 11 11 11 12 11 11 10 11 11 10 10 10 10
5 5 5 4 3 4 4 5 6 4 4 4 4 3 4 5 6 6 6 5 6 6 7 8 7 10 9 9 10 10 8 8 11 10 10 10 10 10 11 11 10 9 9 9
Wind_Direction
141 113 103 172 174 184 190 183 178 212 207 237 233 184 159 123 110 90 62 27 343 331 327 322 313 310 311 313 320 318 310 307 302 301 294 293 289 292 289 284 278 272 277 283
117 99 238 252 243 234 215 210 238 231 249 215 120 105 139 140 117 86 11 336 324 324 323 314 316 319 321 319 317 317 309 302 296 290 288 287 294 285 276 277 278 277 272 274
244 356 7 301 231 220 200 201 188 206 219 162 161 150 160 150 122 100 325 316 326 323 318 320 318 313 310 313 315 308 305 301 300 296 292 292 290 281 275 278 279 275 268 269
124 15 226 239 287 219 192 258 284 223 175 168 147 133 121 103 108 342 334 324 326 318 316 308 305 309 304 309 301 298 295 289 295 294 292 296 290 286 286 283 280 276 272 265
140 217 296 315 26 106 158 291 306 126 103 90 86 72 28 80 51 12 325 334 308 306 307 314 312 314 311 303 298 292 294 294 293 300 297 295 287 289 290 289 285 280 275 267
168 216 232 240 311 329 157 299 180 126 122 121 118 39 278 22 6 358 355 335 321 323 315 315 314 310 304 307 299 296 298 299 299 298 292 290 293 292 287 284 280 278 278 272
169 198 284 252 287 322 94 233 115 98 121 135 106 143 117 13 9 356 328 327 326 319 312 310 311 308 300 299 295 297 298 297 293 294 296 291 290 285 285 284 293 290 286 282
140 163 268 8 339 190 209 115 131 107 103 101 113 94 36 23 355 341 329 324 316 315 315 315 313 312 305 300 304 303 299 295 298 297 299 296 288 286 283 297 297 297 297 300
171 210 235 294 206 120 129 118 101 93 80 106 104 61 35 358 344 311 308 324 327 327 320 318 319 309 303 307 307 303 300 300 302 302 298 290 287 289 293 297 300 300 300 295
58 360 247 205 347 142 127 113 116 109 112 105 117 95 68 344 320 314 316 321 331 327 324 321 323 320 311 310 308 307 305 304 308 300 297 294 290 284 283 292 303 306 306 317
277 300 323 256 201 116 94 102 101 87 98 119 122 96 77 357 328 309 315 316 332 329 316 319 327 325 322 317 317 310 307 309 304 294 297 297 293 286 283 280 278 301 304 307
219 212 173 233 160 132 124 121 117 120 107 96 97 92 9 314 299 315 322 326 341 328 323 329 330 328 328 329 321 314 308 307 300 299 299 296 298 294 263 257 273 279 268 268
219 180 190 103 129 126 126 130 123 113 114 120 107 37 343 317 322 337 322 340 337 327 330 332 331 332 336 330 325 317 308 306 301 298 300 306 306 294 296 306 275 268 263 276
181 133 100 141 153 128 120 114 116 111 111 110 86 54 23 354 329 343 335 343 330 329 339 334 336 340 337 332 328 322 314 309 306 310 307 308 311 307 280 299 311 317 12 288
177 86 121 111 105 100 107 116 126 126 127 109 74 58 32 9 0 343 327 343 331 338 344 342 342 344 340 340 338 330 328 327 326 316 311 318 316 320 299 294 292 300 325 339
92 102 111 119 119 117 115 117 121 134 138 112 80 63 31 16 354 337 338 348 347 345 342 343 346 342 343 346 345 339 337 336 338 329 330 332 327 324 310 294 288 294 314 335
103 99 109 113 123 126 126 125 130 137 130 100 75 96 49 17 359 1 359 347 344 349 350 345 346 345 349 354 351 345 340 342 344 344 343 339 335 334 329 325 301 329 46 12
115 128 133 140 144 136 124 110 111 125 115 102 85 81 59 30 1 346 352 345 355 2 4 352 352 350 353 357 357 351 349 349 353 353 347 349 346 346 348 344 27 64 80 36
127 117 118 119 117 108 106 111 109 107 88 91 87 90 84 45 5 348 349 12 10 2 355 353 354 356 358 2 4 357 354 356 2 1 357 353 357 0 2 356 3 37 55 58
101 100 104 102 98 106 108 111 107 89 84 89 87 89 84 56 16 11 2 27 10 355 343 350 355 357 3 5 8 4 359 0 5 6 5 3 3 3 3 4 4 6 11 11
112 113 113 113 116 112 113 118 100 82 77 77 86 92 98 76 38 26 25 21 359 357 357 357 4 1 4 5 11 9 5 2 6 7 8 5 1 5 5 9 6 4 357 355
114 112 110 113 121 115 111 108 97 92 84 75 66 66 80 62 49 36 38 14 343 356 1 4 3 4 5 12 12 12 11 7 7 5 9 8 7 5 4 3 3 1 357 352
107 112 115 119 124 125 118 109 93 89 82 73 61 43 53 74 66 49 28 359 3 359 13 7 358 357 4 16 14 14 12 10 8 6 4 3 5 5 3 0 357 357 357 354
111 118 113 119 114 103 101 112 102 83 81 70 61 48 50 58 52 32 30 15 14 13 8 360 359 2 7 9 18 17 15 10 7 2 3 3 359 359 2 359 358 355 352 354
123 119 121 123 108 106 114 119 101 83 75 64 51 36 28 23 71 51 27 27 16 14 5 359 359 4 11 7 17 17 14 11 7 -0 359 2 357 355 355 355 355 352 349 350
114 116 124 121 118 120 124 122 114 100 84 75 49 25 28 27 41 47 45 32 26 11 3 359 5 7 6 7 13 12 11 9 6 4 359 359 357 354 351 349 349 349 347 342
87 97 110 86 82 101 109 123 122 103 83 81 82 18 32 35 36 40 32 24 17 9 1 5 3 9 8 6 13 6 3 3 9 2 359 358 356 352 348 345 343 340 337 338